Voltar ao catálogo

STARLINK-34779

AtivoComunicaçõesSSO
NORAD 65058·PAYLOAD·🇺🇸 United States

Lançado Jul 31, 2025 de Vandenberg Space Force Base

Loading…

Próximas Passagens (próximas 24 horas)

TLE

AtualizadoSource: CelesTrak SupGP

Época: Sep 15, 2026, 02:44 UTC

1 65058C 25165C   26258.11437500  .01956800  00000+0  61923-1 0  2585
2 65058  97.2842 329.4428 0001545  83.5187 223.1953 15.31839536    17

Acompanhe STARLINK-34779 em tempo real com AllMySat

Download on the App Store